�N����,����,�~����,�C��,���x,�C��,����,���ϕ���,�ő�u�ԕ���,�ő厞����,���˗�,�I�_���x,�n�����x,�ő啗���N��,DTYPE
"18/06/08","00:10",0.0,21.8,87.5,1006.2,296.0,1.0,1.4,307.7,0.00,19.7,21.6,"00:00:56",1
"18/06/08","00:20",0.0,21.8,87.6,1005.7,279.3,1.0,1.4,312.2,0.00,19.7,21.5,"00:10:02",1
"18/06/08","00:30",0.0,21.7,87.5,1006.0,285.6,1.0,1.4,309.0,0.00,19.6,21.7,"00:20:08",1
"18/06/08","00:40",0.0,21.8,87.4,1005.7,285.0,1.1,1.8,329.4,0.00,19.7,21.7,"00:39:52",1
"18/06/08","00:50",0.0,21.7,87.4,1005.7,313.6,1.2,1.7,323.4,0.00,19.6,21.6,"00:41:04",1
"18/06/08","01:00",0.0,21.7,87.3,1005.7,305.8,1.2,2.0,319.4,0.00,19.5,21.5,"00:52:40",1
"18/06/08","01:10",0.0,21.8,87.5,1005.7,313.3,1.1,1.7,317.9,0.00,19.7,21.6,"01:04:48",1
"18/06/08","01:20",0.0,21.7,87.7,1005.2,298.4,1.0,1.8,318.7,0.00,19.6,21.4,"01:12:56",1
"18/06/08","01:30",0.0,21.7,88.4,1005.7,309.0,1.0,1.6,321.8,0.00,19.7,21.5,"01:21:36",1
"18/06/08","01:40",0.0,21.6,88.6,1005.5,307.7,1.1,1.6,320.8,0.00,19.7,21.6,"01:34:40",1
"18/06/08","01:50",0.0,21.3,89.1,1005.0,294.4,1.0,1.2,306.9,0.00,19.5,21.5,"01:46:48",1
"18/06/08","02:00",0.0,21.2,89.8,1005.0,297.3,1.0,1.6,323.8,0.00,19.5,21.5,"01:56:56",1
"18/06/08","02:10",0.0,21.3,89.8,1005.5,298.1,1.0,1.6,267.0,0.00,19.6,21.4,"02:04:56",1
"18/06/08","02:20",0.0,21.3,89.8,1005.0,305.2,1.1,1.7,324.8,0.00,19.6,21.5,"02:18:08",1
"18/06/08","02:30",0.0,21.3,89.9,1005.2,298.2,0.8,1.3,314.0,0.00,19.6,21.4,"02:20:08",1
"18/06/08","02:40",0.0,21.2,89.9,1005.0,313.7,1.2,2.1,314.4,0.00,19.5,21.5,"02:32:48",1
"18/06/08","02:50",0.0,21.2,90.2,1005.7,319.8,1.2,1.7,326.8,0.00,19.6,21.2,"02:48:24",1
"18/06/08","03:00",0.0,21.1,90.5,1005.7,297.1,1.1,1.8,329.9,0.00,19.5,21.3,"02:53:12",1
"18/06/08","03:10",0.0,21.0,90.7,1005.5,286.5,0.8,1.1,279.6,0.00,19.5,21.2,"03:03:52",1
"18/06/08","03:20",0.0,21.1,90.8,1005.5,281.8,0.8,1.0,284.3,0.00,19.6,21.4,"03:11:04",1
"18/06/08","03:30",0.0,21.1,90.7,1005.2,299.0,1.0,1.1,311.1,0.00,19.6,21.4,"03:21:12",1
"18/06/08","03:40",0.0,21.2,90.7,1005.5,301.3,1.3,2.9,306.4,0.00,19.7,21.1,"03:37:44",1
"18/06/08","03:50",0.0,21.3,90.4,1005.5,333.8,1.5,3.3,334.0,0.00,19.7,21.3,"03:40:08",1
"18/06/08","04:00",0.0,21.4,90.1,1005.7,310.8,1.3,2.0,317.6,0.00,19.7,21.2,"03:51:52",1
"18/06/08","04:10",0.0,21.3,90.1,1005.2,299.2,1.1,1.8,307.9,0.00,19.7,21.2,"04:02:24",1
"18/06/08","04:20",0.0,21.3,90.3,1005.7,300.2,1.0,1.6,314.0,0.00,19.7,21.1,"04:10:40",1
"18/06/08","04:30",0.0,21.2,90.4,1005.7,289.8,1.0,1.1,281.5,0.00,19.6,21.1,"04:22:08",1
"18/06/08","04:40",0.0,21.2,90.6,1005.5,305.0,1.1,1.7,321.0,0.00,19.6,21.2,"04:32:32",1
"18/06/08","04:50",0.0,21.1,90.9,1005.5,292.2,0.7,1.0,290.4,0.00,19.6,21.1,"04:42:32",1
"18/06/08","05:00",0.0,20.9,90.9,1005.5,304.9,0.7,1.4,317.7,0.00,19.4,21.2,"04:58:48",1
"18/06/08","05:10",0.0,20.8,91.5,1005.2,311.4,1.1,1.6,318.0,0.00,19.4,21.0,"05:00:56",1
"18/06/08","05:20",0.0,20.6,91.8,1005.5,310.0,1.0,1.6,321.0,0.00,19.3,21.1,"05:19:44",1
"18/06/08","05:30",0.0,20.6,92.2,1006.0,314.9,1.2,2.6,338.3,0.00,19.3,21.1,"05:28:48",1
"18/06/08","05:40",0.0,20.6,92.6,1005.7,303.8,0.8,1.6,327.1,0.00,19.4,21.0,"05:30:24",1
"18/06/08","05:50",0.0,20.8,92.8,1006.0,285.1,0.8,1.4,321.8,0.00,19.6,20.8,"05:45:20",1
"18/06/08","06:00",0.0,21.0,92.8,1005.7,299.1,1.0,1.3,323.8,0.00,19.8,21.0,"05:56:48",1
"18/06/08","06:10",0.0,21.0,92.7,1006.0,293.3,1.1,1.8,319.4,0.00,19.8,21.0,"06:01:36",1
"18/06/08","06:20",0.0,21.2,92.8,1006.0,311.1,1.1,1.6,320.1,0.01,20.0,21.0,"06:19:12",1
"18/06/08","06:30",0.0,21.4,92.6,1005.5,331.4,1.1,1.7,348.2,0.01,20.2,20.9,"06:26:08",1
"18/06/08","06:40",0.0,21.5,92.3,1005.5,319.1,1.3,1.8,326.0,0.00,20.2,21.1,"06:33:36",1
"18/06/08","06:50",0.0,21.5,92.0,1005.7,298.0,1.0,1.6,313.9,0.01,20.2,21.0,"06:41:12",1
"18/06/08","07:00",0.0,21.7,91.9,1005.7,312.9,0.8,1.2,322.3,0.01,20.4,21.0,"06:53:12",1
"18/06/08","07:10",0.0,21.9,91.9,1005.5,312.1,0.6,1.0,311.8,0.03,20.6,20.8,"07:09:28",1
"18/06/08","07:20",0.0,22.1,91.2,1005.5,332.6,1.1,1.7,336.7,0.04,20.6,21.0,"07:19:28",1
"18/06/08","07:30",0.0,22.2,90.9,1005.2,335.0,1.1,2.1,335.5,0.04,20.7,21.1,"07:21:36",1
"18/06/08","07:40",0.0,22.3,90.0,1005.5,332.2,1.0,1.8,348.6,0.08,20.6,21.1,"07:34:48",1
"18/06/08","07:50",0.0,22.8,87.8,1005.0,302.9,0.7,1.6,341.2,0.10,20.7,21.1,"07:49:52",1
"18/06/08","08:00",0.0,23.7,84.5,1005.2,330.5,1.1,3.1,341.8,0.26,21.0,21.2,"07:57:44",1
"18/06/08","08:10",0.0,24.1,82.9,1005.0,304.4,0.7,1.9,314.8,0.22,21.1,21.3,"08:00:56",1
"18/06/08","08:20",0.0,24.1,82.7,1004.5,138.4,0.8,1.8,141.5,0.25,21.0,21.3,"08:14:56",1
"18/06/08","08:30",0.0,24.0,82.7,1004.8,221.6,1.1,1.9,220.1,0.22,20.9,21.4,"08:20:40",1
"18/06/08","08:40",0.0,24.0,81.5,1004.3,207.6,0.6,1.9,127.3,0.13,20.7,21.5,"08:39:36",1
"18/06/08","08:50",0.0,23.9,81.4,1004.3,169.1,0.7,1.6,137.6,0.07,20.6,21.5,"08:43:52",1
"18/06/08","09:00",0.0,23.8,81.0,1004.5,216.6,1.0,1.8,236.9,0.06,20.4,21.7,"08:53:28",1
"18/06/08","09:10",0.0,23.9,81.4,1004.3,228.3,0.6,2.1,235.1,0.05,20.6,21.7,"09:03:12",1
"18/06/08","09:20",0.0,24.0,81.3,1004.1,273.5,0.5,1.2,238.0,0.07,20.6,21.7,"09:13:36",1
"18/06/08","09:30",0.0,24.0,80.6,1004.1,231.9,0.3,0.9,310.8,0.09,20.5,21.7,"09:20:24",1
"18/06/08","09:40",0.0,24.1,80.2,1003.8,247.8,0.6,1.4,207.1,0.10,20.5,21.8,"09:39:52",1
"18/06/08","09:50",0.0,24.3,79.8,1003.8,228.8,0.5,1.0,214.5,0.08,20.6,21.9,"09:40:08",1
"18/06/08","10:00",0.0,24.5,78.7,1004.1,257.7,0.5,1.2,261.8,0.06,20.6,21.8,"09:58:00",1
"18/06/08","10:10",0.0,24.4,79.5,1004.1,209.2,0.5,1.3,217.8,0.11,20.7,21.8,"10:08:56",1
"18/06/08","10:20",0.0,24.5,79.4,1003.8,229.4,0.7,2.1,220.2,0.12,20.7,21.9,"10:16:40",1
"18/06/08","10:30",0.0,24.5,79.9,1003.6,169.6,0.7,2.0,142.5,0.12,20.8,21.9,"10:21:44",1
"18/06/08","10:40",0.0,24.7,79.8,1003.4,205.6,0.7,2.0,260.6,0.14,21.0,22.1,"10:33:36",1
"18/06/08","10:50",0.0,24.7,79.2,1003.4,213.9,1.2,2.7,230.3,0.13,20.9,21.9,"10:45:12",1
"18/06/08","11:00",0.0,24.9,78.6,1003.1,164.3,1.2,2.2,204.2,0.15,21.0,21.8,"10:56:08",1
"18/06/08","11:10",0.0,24.4,79.6,1002.9,169.8,1.1,2.2,178.3,0.13,20.7,22.1,"11:01:20",1
"18/06/08","11:20",0.0,24.5,78.8,1002.6,180.9,1.2,2.1,201.6,0.06,20.6,22.1,"11:13:28",1
"18/06/08","11:30",0.0,24.6,80.2,1002.6,165.2,1.0,2.2,185.6,0.13,21.0,21.9,"11:22:24",1
"18/06/08","11:40",0.0,24.7,79.0,1002.4,224.5,1.2,3.2,213.5,0.17,20.9,22.3,"11:39:20",1
"18/06/08","11:50",0.0,24.6,79.2,1002.6,224.9,1.0,2.5,229.8,0.09,20.8,22.2,"11:49:04",1
"18/06/08","12:00",0.0,24.8,79.2,1002.6,191.1,0.6,2.0,197.8,0.06,21.0,22.2,"11:59:36",1
"18/06/08","12:10",0.0,23.7,84.5,1002.6,202.1,1.5,2.6,216.6,0.08,21.0,22.2,"12:09:04",1
"18/06/08","12:20",0.0,23.5,86.8,1002.4,206.0,1.2,2.1,197.9,0.12,21.2,22.4,"12:17:12",1
"18/06/08","12:30",0.0,23.7,88.7,1002.6,193.2,1.5,2.6,206.5,0.18,21.8,22.5,"12:20:56",1
"18/06/08","12:40",0.0,23.1,87.6,1002.6,183.3,1.1,2.1,191.6,0.09,21.0,22.3,"12:32:24",1
"18/06/08","12:50",0.0,23.4,88.4,1002.6,154.0,0.6,1.7,117.8,0.07,21.4,22.3,"12:40:40",1
"18/06/08","13:00",0.2,23.1,89.7,1002.2,163.8,0.3,1.1,108.7,0.12,21.4,22.4,"12:59:28",1
"18/06/08","13:10",0.2,23.1,89.5,1002.2,66.9,0.2,1.0,8.4,0.12,21.3,22.4,"13:08:24",1
"18/06/08","13:20",0.0,23.5,90.2,1001.9,344.7,0.6,1.6,358.1,0.11,21.8,22.2,"13:15:20",1
"18/06/08","13:30",0.0,23.7,89.5,1001.7,210.8,0.3,1.2,105.2,0.20,21.9,22.5,"13:28:16",1
"18/06/08","13:40",0.0,23.6,89.1,1001.7,342.9,0.5,1.6,329.5,0.10,21.7,22.3,"13:30:56",1
"18/06/08","13:50",0.0,23.6,88.0,1001.7,245.7,0.3,1.0,255.3,0.06,21.5,22.5,"13:46:56",1
"18/06/08","14:00",0.0,23.6,88.9,1001.5,222.1,0.3,1.0,218.9,0.10,21.7,22.5,"13:58:48",1
"18/06/08","14:10",0.0,23.9,87.7,1001.5,287.4,0.6,1.2,324.9,0.07,21.8,22.5,"14:04:56",1
"18/06/08","14:20",0.0,23.8,87.5,1000.5,328.8,0.7,1.6,317.3,0.05,21.6,22.5,"14:11:12",1
"18/06/08","14:30",0.0,23.8,87.4,1001.0,295.2,0.7,1.8,338.8,0.04,21.6,22.4,"14:20:02",1
"18/06/08","14:40",0.0,23.7,87.7,1001.0,302.3,1.1,1.9,325.2,0.01,21.6,22.5,"14:30:40",1
"18/06/08","14:50",0.0,23.9,88.2,1001.5,304.9,1.1,2.7,321.1,0.03,21.9,22.4,"14:46:56",1
"18/06/08","15:00",0.0,23.8,88.5,1001.5,306.1,1.0,2.1,347.7,0.03,21.8,22.4,"14:58:16",1
"18/06/08","15:10",0.0,23.6,88.6,1001.2,323.0,1.2,2.1,319.3,0.02,21.6,22.5,"15:03:36",1
"18/06/08","15:20",0.2,23.6,90.0,1001.2,329.6,1.3,2.2,328.3,0.09,21.9,22.4,"15:15:52",1
"18/06/08","15:30",0.0,23.7,90.6,1001.0,324.5,1.2,2.6,350.1,0.09,22.1,22.5,"15:21:04",1
"18/06/08","15:40",0.0,23.9,90.7,1001.2,347.3,0.8,2.4,326.3,0.15,22.3,22.3,"15:38:32",1
"18/06/08","15:50",0.0,23.9,89.8,1001.2,327.2,1.0,1.8,342.5,0.02,22.2,22.5,"15:40:24",1
"18/06/08","16:00",0.0,23.6,89.9,1001.0,310.2,0.8,1.7,330.3,0.02,21.9,22.3,"15:51:20",1
"18/06/08","16:10",0.0,23.7,90.0,1000.5,291.1,0.5,0.9,308.8,0.01,22.0,22.5,"16:00:02",1
"18/06/08","16:20",0.0,23.5,90.1,1000.3,295.8,0.6,1.2,329.2,0.00,21.8,22.4,"16:10:32",1
"18/06/08","16:30",0.0,23.4,90.5,1000.8,298.2,0.8,1.3,326.5,0.01,21.8,22.4,"16:25:44",1
"18/06/08","16:40",0.0,23.4,90.9,1000.5,312.5,1.0,1.9,320.5,0.02,21.9,22.2,"16:38:08",1
"18/06/08","16:50",0.0,23.3,91.1,1000.3,310.9,1.0,1.6,311.4,0.01,21.8,22.4,"16:40:40",1
"18/06/08","17:00",0.0,23.3,91.5,1000.5,330.7,1.1,1.7,348.2,0.00,21.9,22.3,"16:53:12",1
"18/06/08","17:10",0.0,23.2,91.7,1000.8,343.8,0.8,1.4,337.5,0.00,21.8,22.2,"17:05:52",1
"18/06/08","17:20",0.0,23.1,92.0,1000.3,349.8,0.8,1.6,335.1,0.00,21.8,22.6,"17:17:44",1
"18/06/08","17:30",0.0,22.9,92.1,1000.5,326.5,1.0,1.6,332.4,0.00,21.6,22.0,"17:23:20",1
"18/06/08","17:40",0.0,22.9,92.6,1000.3,302.4,0.8,1.8,336.3,0.00,21.7,22.3,"17:33:52",1
"18/06/08","17:50",0.0,22.9,92.7,1000.5,305.7,0.8,1.3,322.2,0.00,21.7,22.1,"17:47:28",1
"18/06/08","18:00",0.0,22.9,92.8,1000.5,315.6,1.1,1.6,315.6,0.00,21.7,22.1,"17:58:00",1
"18/06/08","18:10",0.0,22.8,92.9,1000.5,279.5,0.7,1.6,340.9,0.00,21.6,22.1,"18:00:08",1
"18/06/08","18:20",0.0,22.7,93.2,1000.5,283.6,0.7,1.0,305.2,0.00,21.6,22.1,"18:13:44",1
"18/06/08","18:30",0.0,22.7,93.3,1000.5,286.2,0.7,1.2,307.1,0.00,21.6,22.0,"18:24:56",1
"18/06/08","18:40",0.0,22.6,93.6,1000.5,310.9,1.1,1.8,335.6,0.00,21.6,22.1,"18:30:02",1
"18/06/08","18:50",0.0,22.5,93.6,1000.0,310.9,1.2,3.2,317.2,0.00,21.5,21.9,"18:43:28",1
"18/06/08","19:00",0.2,22.4,93.8,1000.3,247.4,0.8,1.6,279.2,0.00,21.4,22.0,"18:55:44",1
"18/06/08","19:10",0.0,22.4,94.2,1000.3,224.8,0.7,1.7,199.5,0.00,21.5,22.2,"19:01:20",1
"18/06/08","19:20",0.0,22.4,94.5,1000.5,343.2,0.7,1.6,333.0,0.00,21.5,22.0,"19:15:14",1
"18/06/08","19:30",0.0,22.3,94.6,1000.5,343.3,0.5,1.2,333.8,0.00,21.4,22.1,"19:25:12",1
"18/06/08","19:40",0.2,22.3,94.7,1000.0,195.4,0.2,0.8,166.6,0.00,21.4,21.9,"19:30:56",1
"18/06/08","19:50",0.0,22.3,94.9,1000.3,341.3,0.6,1.2,339.7,0.00,21.5,21.8,"19:49:52",1
"18/06/08","20:00",0.0,22.3,95.0,1000.5,302.8,0.6,1.3,304.9,0.00,21.5,21.9,"19:58:50",1
"18/06/08","20:10",0.0,22.3,95.1,1000.8,301.8,0.7,1.6,338.2,0.00,21.5,21.7,"20:03:18",1
"18/06/08","20:20",0.0,22.3,95.3,1000.8,309.9,0.5,1.0,355.3,0.00,21.6,21.8,"20:19:18",1
"18/06/08","20:30",0.2,22.3,95.4,1000.5,339.9,0.3,0.9,5.3,0.00,21.6,21.8,"20:26:18",1
"18/06/08","20:40",0.0,22.3,95.4,1000.3,212.6,0.2,0.6,129.5,0.00,21.6,21.8,"20:31:28",1
"18/06/08","20:50",0.0,22.4,95.4,1001.0,189.8,0.5,1.1,207.8,0.00,21.7,21.7,"20:47:14",1
"18/06/08","21:00",0.0,22.4,95.6,1001.2,231.2,0.7,1.7,198.4,0.00,21.7,21.8,"20:53:10",1
"18/06/08","21:10",0.2,22.4,95.6,1001.2,199.9,0.6,1.1,160.2,0.00,21.7,21.8,"21:07:32",1
"18/06/08","21:20",0.0,22.5,95.8,1001.0,323.4,0.5,1.0,305.9,0.00,21.8,21.6,"21:16:20",1
"18/06/08","21:30",0.0,22.5,95.8,1001.2,212.4,0.5,1.0,208.1,0.00,21.8,21.8,"21:23:12",1
"18/06/08","21:40",0.0,22.5,95.9,1001.5,256.9,0.5,1.0,324.5,0.00,21.9,21.6,"21:36:36",1
"18/06/08","21:50",0.0,22.5,95.9,1001.2,321.9,0.6,1.2,334.4,0.00,21.9,21.8,"21:49:00",1
"18/06/08","22:00",0.0,22.5,95.9,1001.2,299.3,0.7,1.4,310.2,0.00,21.9,21.6,"21:54:24",1
"18/06/08","22:10",0.0,22.5,96.0,1001.5,291.5,0.3,1.2,306.9,0.00,21.9,21.7,"22:01:20",1
"18/06/08","22:20",0.2,22.5,96.1,1001.7,305.2,0.6,1.4,268.7,0.00,21.9,21.6,"22:17:52",1
"18/06/08","22:30",0.0,22.5,96.0,1001.5,300.3,0.8,2.0,340.1,0.00,21.9,21.7,"22:23:12",1
"18/06/08","22:40",0.0,22.5,96.0,1001.5,321.1,1.0,1.6,329.5,0.00,21.9,21.6,"22:31:36",1
"18/06/08","22:50",0.0,22.5,96.0,1001.0,299.4,0.6,1.3,338.1,0.00,21.9,21.8,"22:42:56",1
"18/06/08","23:00",0.0,22.5,96.0,1001.5,275.7,0.3,1.0,260.2,0.00,21.9,21.7,"22:52:08",1
"18/06/08","23:10",0.0,22.5,96.0,1000.8,275.2,0.5,1.1,305.1,0.00,21.9,21.7,"23:08:24",1
"18/06/08","23:20",0.0,22.5,96.0,1000.8,282.9,0.3,0.9,318.3,0.00,21.9,21.6,"23:13:04",1
"18/06/08","23:30",0.0,22.4,96.0,1001.0,234.3,0.3,1.0,226.6,0.00,21.8,21.6,"23:20:48",1
"18/06/08","23:40",0.0,22.4,96.1,1000.3,332.2,0.6,1.0,337.6,0.00,21.8,21.6,"23:32:56",1
"18/06/08","23:50",0.2,22.4,96.1,1000.5,335.0,0.7,1.4,340.7,0.00,21.8,21.5,"23:43:28",1
"18/06/08","24:00",0.0,22.3,96.1,1000.3,283.0,0.5,1.2,335.6,0.00,21.7,21.6,"23:50:32",1
